Weather in Progress

Russia / Amur Oblast     49°44′34″N   129°40′33″E
temp.,
°C
wind,
m/s
gust,
m/s
humid.,
%
clouds,
%
prec.,
mm/h
press.,
hPa
HPBL,
m
22 january, sat
sat2200:00−33n1110045 0.0 10359
03:00−35n1110012 0.0 10359
06:00−36n1110080 0.0 10359
09:00−35nne1110079 0.0 103610
12:00−23wnw119382 0.0 1034173
15:00−18wnw128591 0.0 1032336
18:00−28wsw111009 0.0 10339
21:00−31n1110051 0.0 10339
23 january, sun
sun2300:00−33nnw1110015 0.0 10349
03:00−34nnw1110015 0.0 10349
06:00−35nnw1110078 0.0 10339
09:00−32nnw1199100 0.0 103322
12:00−21wnw1395100 0.0 1032262
15:00−16wnw2485100 0.0 1030453
18:00−25nw22997 0.0 103110
21:00−29nnw1110011 0.0 10319
24 january, mon
mon2400:00−31nnw1110053 0.0 10319
03:00−32n1110078 0.0 10319
06:00−32n00100100 0.0 10319
09:00−32nne00100100 0.1 103118
12:00−20wnw119590 0.0 1029170
15:00−14wnw138364 0.0 1027375
18:00−24ssw1110041 0.0 10289
21:00−28ne0010099 0.0 10289
25 january, tue
tue2500:00−29nne11100100 0.0 10289
03:00−29nne11100100 0.0 10279
06:00−30nne1110099 0.0 10269
09:00−28nne11100100 0.0 102618
12:00−19n1191100 0.0 1025169
15:00−15n1285100 0.0 1023334
18:00−18nw1195100 0.0 10249
21:00−20nnw1199100 0.0 102413
26 january, wed
wed2600:00−21nnw2297100 0.0 102420
03:00−22nnw2296100 0.0 102542
06:00−27nnw2299100 0.0 102615
09:00−28nnw229940 0.0 102735
12:00−18nw248990 0.0 1026322
15:00−15nw3485100 0.0 1026484
18:00−23wnw22997 0.0 102825
21:00−28nw2110042 0.0 10299